Year,Month,Day,Hour,Minute,Value (Times are PST for temperature in C)
2023,03,27,00,00,3.90
2023,03,27,00,01,3.90
2023,03,27,00,02,3.90
2023,03,27,00,03,3.90
2023,03,27,00,04,3.90
2023,03,27,00,05,3.90
2023,03,27,00,06,3.90
2023,03,27,00,07,3.90
2023,03,27,00,08,3.90
2023,03,27,00,09,3.90
2023,03,27,00,10,3.90
2023,03,27,00,11,3.90
2023,03,27,00,12,3.80
2023,03,27,00,13,3.80
2023,03,27,00,14,3.80
2023,03,27,00,15,3.80
2023,03,27,00,16,3.80
2023,03,27,00,17,3.80
2023,03,27,00,18,3.80
2023,03,27,00,19,3.80
2023,03,27,00,20,3.70
2023,03,27,00,21,3.70
2023,03,27,00,22,3.70
2023,03,27,00,23,3.70
2023,03,27,00,24,3.70
2023,03,27,00,25,3.60
2023,03,27,00,26,3.60
2023,03,27,00,27,3.60
2023,03,27,00,28,3.60
2023,03,27,00,29,3.60
2023,03,27,00,30,3.60
2023,03,27,00,31,3.60
2023,03,27,00,32,3.60
2023,03,27,00,33,3.60
2023,03,27,00,34,3.60
2023,03,27,00,35,3.60
2023,03,27,00,36,3.60
2023,03,27,00,37,3.60
2023,03,27,00,38,3.60
2023,03,27,00,39,3.60
2023,03,27,00,40,3.60
2023,03,27,00,41,3.70
2023,03,27,00,42,3.70
2023,03,27,00,43,3.70
2023,03,27,00,44,3.70
2023,03,27,00,45,3.60
2023,03,27,00,46,3.60
2023,03,27,00,47,3.60
2023,03,27,00,48,3.60
2023,03,27,00,49,3.60
2023,03,27,00,50,3.60
2023,03,27,00,51,3.60
2023,03,27,00,52,3.60
2023,03,27,00,53,3.60
2023,03,27,00,54,3.60
2023,03,27,00,55,3.60
2023,03,27,00,56,3.60
2023,03,27,00,57,3.60
2023,03,27,00,58,3.60
2023,03,27,00,59,3.60
2023,03,27,01,00,3.60
2023,03,27,01,01,3.60
2023,03,27,01,02,3.60
2023,03,27,01,03,3.60
2023,03,27,01,04,3.60
2023,03,27,01,05,3.50
2023,03,27,01,06,3.50
2023,03,27,01,07,3.50
2023,03,27,01,08,3.50
2023,03,27,01,09,3.50
2023,03,27,01,10,3.50
2023,03,27,01,11,3.50
2023,03,27,01,12,3.50
2023,03,27,01,13,3.50
2023,03,27,01,14,3.50
2023,03,27,01,15,3.50
2023,03,27,01,16,3.50
2023,03,27,01,17,3.50
2023,03,27,01,18,3.50
2023,03,27,01,19,3.50
2023,03,27,01,20,3.50
2023,03,27,01,21,3.50
2023,03,27,01,22,3.50
2023,03,27,01,23,3.50
2023,03,27,01,24,3.50
2023,03,27,01,25,3.50
2023,03,27,01,26,3.50
2023,03,27,01,27,3.50
2023,03,27,01,28,3.50
2023,03,27,01,29,3.50
2023,03,27,01,30,3.40
2023,03,27,01,31,3.40
2023,03,27,01,32,3.40
2023,03,27,01,33,3.40
2023,03,27,01,34,3.40
2023,03,27,01,35,3.40
2023,03,27,01,36,3.40
2023,03,27,01,37,3.40
2023,03,27,01,38,3.40
2023,03,27,01,39,3.40
2023,03,27,01,40,3.40
2023,03,27,01,41,3.40
2023,03,27,01,42,3.40
2023,03,27,01,43,3.40
2023,03,27,01,44,3.40
2023,03,27,01,45,3.40
2023,03,27,01,46,3.40
2023,03,27,01,47,3.40
2023,03,27,01,48,3.40
2023,03,27,01,49,3.40
2023,03,27,01,50,3.40
2023,03,27,01,51,3.50
2023,03,27,01,52,3.50
2023,03,27,01,53,3.50
2023,03,27,01,54,3.50
2023,03,27,01,55,3.50
2023,03,27,01,56,3.50
2023,03,27,01,57,3.50
2023,03,27,01,58,3.60
2023,03,27,01,59,3.60
2023,03,27,02,00,3.60
2023,03,27,02,01,3.60
2023,03,27,02,02,3.60
2023,03,27,02,03,3.60
2023,03,27,02,04,3.60
2023,03,27,02,05,3.60
2023,03,27,02,06,3.60
2023,03,27,02,07,3.60
2023,03,27,02,08,3.60
2023,03,27,02,09,3.60
2023,03,27,02,10,3.60
2023,03,27,02,11,3.70
2023,03,27,02,12,3.70
2023,03,27,02,13,3.70
2023,03,27,02,14,3.70
2023,03,27,02,15,3.70
2023,03,27,02,16,3.70
2023,03,27,02,17,3.70
2023,03,27,02,18,3.70
2023,03,27,02,19,3.70
2023,03,27,02,20,3.70
2023,03,27,02,21,3.70
2023,03,27,02,22,3.70
2023,03,27,02,23,3.70
2023,03,27,02,24,3.70
2023,03,27,02,25,3.70
2023,03,27,02,26,3.80
2023,03,27,02,27,3.80
2023,03,27,02,28,3.80
2023,03,27,02,29,3.80
2023,03,27,02,30,3.80
2023,03,27,02,31,3.80
2023,03,27,02,32,3.80
2023,03,27,02,33,3.80
2023,03,27,02,34,3.80
2023,03,27,02,35,3.80
2023,03,27,02,36,3.80
2023,03,27,02,37,3.80
2023,03,27,02,38,3.80
2023,03,27,02,39,3.80
2023,03,27,02,40,3.80
2023,03,27,02,41,3.80
2023,03,27,02,42,3.80
2023,03,27,02,43,3.80
2023,03,27,02,44,3.80
2023,03,27,02,45,3.80
2023,03,27,02,46,3.70
2023,03,27,02,47,3.70
2023,03,27,02,48,3.70
2023,03,27,02,49,3.70
2023,03,27,02,50,3.70
2023,03,27,02,51,3.70
2023,03,27,02,52,3.70
2023,03,27,02,53,3.70
2023,03,27,02,54,3.70
2023,03,27,02,55,3.70
2023,03,27,02,56,3.70
2023,03,27,02,57,3.70
2023,03,27,02,58,3.60
2023,03,27,02,59,3.60
2023,03,27,03,00,3.60
2023,03,27,03,01,3.60
2023,03,27,03,02,3.60
2023,03,27,03,03,3.60
2023,03,27,03,04,3.60
2023,03,27,03,05,3.50
2023,03,27,03,06,3.50
2023,03,27,03,07,3.50
2023,03,27,03,08,3.50
2023,03,27,03,09,3.40
2023,03,27,03,10,3.40
2023,03,27,03,11,3.40
2023,03,27,03,12,3.40
2023,03,27,03,13,3.40
2023,03,27,03,14,3.40
2023,03,27,03,15,3.40
2023,03,27,03,16,3.40
2023,03,27,03,17,3.30
2023,03,27,03,18,3.30
2023,03,27,03,19,3.30
2023,03,27,03,20,3.20
2023,03,27,03,21,3.20
2023,03,27,03,22,3.20
2023,03,27,03,23,3.20
2023,03,27,03,24,3.20
2023,03,27,03,25,3.10
2023,03,27,03,26,3.10
2023,03,27,03,27,3.10
2023,03,27,03,28,3.10
2023,03,27,03,29,3.10
2023,03,27,03,30,3.10
2023,03,27,03,31,3.10
2023,03,27,03,32,3.10
2023,03,27,03,33,3.10
2023,03,27,03,34,3.10
2023,03,27,03,35,3.10
2023,03,27,03,36,3.10
2023,03,27,03,37,3.10
2023,03,27,03,38,3.00
2023,03,27,03,39,3.00
2023,03,27,03,40,3.00
2023,03,27,03,41,3.00
2023,03,27,03,42,3.00
2023,03,27,03,43,3.00
2023,03,27,03,44,3.00
2023,03,27,03,45,3.00
2023,03,27,03,46,3.00
2023,03,27,03,47,3.00
2023,03,27,03,48,3.00
2023,03,27,03,49,3.10
2023,03,27,03,50,3.10
2023,03,27,03,51,3.10
2023,03,27,03,52,3.10
2023,03,27,03,53,3.10
2023,03,27,03,54,3.10
2023,03,27,03,55,3.00
2023,03,27,03,56,3.00
2023,03,27,03,57,3.00
2023,03,27,03,58,3.00
2023,03,27,03,59,2.90
2023,03,27,04,00,2.90
2023,03,27,04,01,2.90
2023,03,27,04,02,2.90
2023,03,27,04,03,2.90
2023,03,27,04,04,2.90
2023,03,27,04,05,2.90
2023,03,27,04,06,2.90
2023,03,27,04,07,2.90
2023,03,27,04,08,2.90
2023,03,27,04,09,2.90
2023,03,27,04,10,2.90
2023,03,27,04,11,2.90
2023,03,27,04,12,2.90
2023,03,27,04,13,2.90
2023,03,27,04,14,2.90
2023,03,27,04,15,2.90
2023,03,27,04,16,2.90
2023,03,27,04,17,2.90
2023,03,27,04,18,2.90
2023,03,27,04,19,2.90
2023,03,27,04,20,2.90
2023,03,27,04,21,2.90
2023,03,27,04,22,2.90
2023,03,27,04,23,2.90
2023,03,27,04,24,2.90
2023,03,27,04,25,2.90
2023,03,27,04,26,2.90
2023,03,27,04,27,2.90
2023,03,27,04,28,2.90
2023,03,27,04,29,2.90
2023,03,27,04,30,3.00
2023,03,27,04,31,3.00
2023,03,27,04,32,3.00
2023,03,27,04,33,3.00
2023,03,27,04,34,3.00
2023,03,27,04,35,3.00
2023,03,27,04,36,3.00
2023,03,27,04,37,3.00
2023,03,27,04,38,3.00
2023,03,27,04,39,3.00
2023,03,27,04,40,3.00
2023,03,27,04,41,3.00
2023,03,27,04,42,3.00
2023,03,27,04,43,3.00
2023,03,27,04,44,3.00
2023,03,27,04,45,3.00
2023,03,27,04,46,3.00
2023,03,27,04,47,3.00
2023,03,27,04,48,3.00
2023,03,27,04,49,3.00
2023,03,27,04,50,3.00
2023,03,27,04,51,3.00
2023,03,27,04,52,3.00
2023,03,27,04,53,2.90
2023,03,27,04,54,2.90
2023,03,27,04,55,2.90
2023,03,27,04,56,2.90
2023,03,27,04,57,2.90
2023,03,27,04,58,2.90
2023,03,27,04,59,2.90
2023,03,27,05,00,2.90
2023,03,27,05,01,2.90
2023,03,27,05,02,2.90
2023,03,27,05,03,2.90
2023,03,27,05,04,2.90
2023,03,27,05,05,2.90
2023,03,27,05,06,2.90
2023,03,27,05,07,2.90
2023,03,27,05,08,2.80
2023,03,27,05,09,2.80
2023,03,27,05,10,2.80
2023,03,27,05,11,2.80
2023,03,27,05,12,2.70
2023,03,27,05,13,2.70
2023,03,27,05,14,2.70
2023,03,27,05,15,2.70
2023,03,27,05,16,2.70
2023,03,27,05,17,2.60
2023,03,27,05,18,2.60
2023,03,27,05,19,2.60
2023,03,27,05,20,2.60
2023,03,27,05,21,2.60
2023,03,27,05,22,2.60
2023,03,27,05,23,2.70
2023,03,27,05,24,2.70
2023,03,27,05,25,2.70
2023,03,27,05,26,2.70
2023,03,27,05,27,2.80
2023,03,27,05,28,2.80
2023,03,27,05,29,2.80
2023,03,27,05,30,2.80
2023,03,27,05,31,2.80
2023,03,27,05,32,2.80
2023,03,27,05,33,2.80
2023,03,27,05,34,2.80
2023,03,27,05,35,2.80
2023,03,27,05,36,2.90
2023,03,27,05,37,2.90
2023,03,27,05,38,2.90
2023,03,27,05,39,2.90
2023,03,27,05,40,2.90
2023,03,27,05,41,2.90
2023,03,27,05,42,2.90
2023,03,27,05,43,2.90
2023,03,27,05,44,2.90
2023,03,27,05,45,2.90
2023,03,27,05,46,2.90
2023,03,27,05,47,3.00
2023,03,27,05,48,2.90
2023,03,27,05,49,3.00
2023,03,27,05,50,3.00
2023,03,27,05,51,3.00
2023,03,27,05,52,3.00
2023,03,27,05,53,3.10
2023,03,27,05,54,3.10
2023,03,27,05,55,3.10
2023,03,27,05,56,3.10
2023,03,27,05,57,3.10
2023,03,27,05,58,3.10
2023,03,27,05,59,3.20
2023,03,27,06,00,3.20
2023,03,27,06,01,3.20
2023,03,27,06,02,3.20
2023,03,27,06,03,3.30
2023,03,27,06,04,3.30
2023,03,27,06,05,3.30
2023,03,27,06,06,3.40
2023,03,27,06,07,3.40
2023,03,27,06,08,3.40
2023,03,27,06,09,3.50
2023,03,27,06,10,3.50
2023,03,27,06,11,3.50
2023,03,27,06,12,3.50
2023,03,27,06,13,3.60
2023,03,27,06,14,3.60
2023,03,27,06,15,3.60
2023,03,27,06,16,3.60
2023,03,27,06,17,3.60
2023,03,27,06,18,3.60
2023,03,27,06,19,3.60
2023,03,27,06,20,3.60
2023,03,27,06,21,3.60
2023,03,27,06,22,3.60
2023,03,27,06,23,3.60
2023,03,27,06,24,3.60
2023,03,27,06,25,3.60
2023,03,27,06,26,3.60
2023,03,27,06,27,3.60
2023,03,27,06,28,3.60
2023,03,27,08,09,4.60
2023,03,27,08,10,4.60
2023,03,27,08,11,4.60
2023,03,27,08,12,4.60
2023,03,27,08,13,4.60
2023,03,27,08,14,4.60
2023,03,27,08,15,4.60
2023,03,27,08,16,4.70
2023,03,27,08,17,4.70
2023,03,27,08,18,4.70
2023,03,27,08,19,4.70
2023,03,27,08,20,4.70
2023,03,27,08,21,4.70
2023,03,27,08,22,4.80
2023,03,27,08,23,4.80
2023,03,27,08,24,4.80
2023,03,27,08,25,4.80
2023,03,27,08,26,4.80
2023,03,27,08,27,4.80
2023,03,27,08,28,4.80
2023,03,27,08,29,4.80
2023,03,27,08,30,4.80
2023,03,27,08,31,4.80
2023,03,27,08,32,4.80
2023,03,27,08,33,4.80
2023,03,27,08,34,4.80
2023,03,27,08,35,4.80
2023,03,27,08,36,4.80
2023,03,27,08,37,4.80
2023,03,27,08,38,4.80
2023,03,27,08,39,4.80
2023,03,27,08,40,4.80
2023,03,27,08,41,4.80
2023,03,27,08,42,4.80
2023,03,27,08,43,4.90
2023,03,27,08,44,4.90
2023,03,27,08,45,4.90
2023,03,27,08,46,4.90
2023,03,27,08,47,4.90
2023,03,27,08,48,4.90
2023,03,27,08,49,4.90
2023,03,27,08,50,4.90
2023,03,27,08,51,5.00
2023,03,27,08,52,5.00
2023,03,27,08,53,5.10
2023,03,27,08,54,5.10
2023,03,27,08,55,5.20
2023,03,27,08,56,5.20
2023,03,27,08,57,5.20
2023,03,27,08,58,5.20
2023,03,27,08,59,5.30
2023,03,27,09,00,5.30
2023,03,27,09,01,5.30
2023,03,27,09,02,5.30
2023,03,27,09,03,5.30
2023,03,27,09,04,5.30
2023,03,27,09,05,5.30
2023,03,27,09,06,5.30
2023,03,27,09,07,5.40
2023,03,27,09,08,5.40
2023,03,27,09,09,5.40
2023,03,27,09,10,5.40
2023,03,27,09,11,5.40
2023,03,27,09,12,5.40
2023,03,27,09,13,5.50
2023,03,27,09,14,5.50
2023,03,27,09,15,5.50
2023,03,27,09,16,5.60
2023,03,27,09,17,5.60
2023,03,27,09,18,5.70
2023,03,27,09,19,5.70
2023,03,27,09,20,5.70
2023,03,27,09,21,5.80
2023,03,27,09,22,5.80
2023,03,27,09,23,5.80
2023,03,27,09,24,5.80
2023,03,27,09,25,5.90
2023,03,27,09,26,5.90
2023,03,27,09,27,5.90
2023,03,27,09,28,5.90
2023,03,27,09,29,6.00
2023,03,27,09,30,6.00
2023,03,27,09,31,6.00
2023,03,27,09,32,6.00
2023,03,27,09,33,6.00
2023,03,27,09,34,5.90
2023,03,27,09,35,5.90
2023,03,27,09,36,5.90
2023,03,27,09,37,5.80
2023,03,27,09,38,5.80
2023,03,27,09,39,5.80
2023,03,27,09,40,5.80
2023,03,27,09,41,5.80
2023,03,27,09,42,5.80
2023,03,27,09,43,5.80
2023,03,27,09,44,5.80
2023,03,27,09,45,5.80
2023,03,27,09,46,5.80
2023,03,27,09,47,5.80
2023,03,27,09,48,5.80
2023,03,27,09,49,5.80
2023,03,27,09,50,5.80
2023,03,27,09,51,5.80
2023,03,27,09,52,5.90
2023,03,27,09,53,5.90
2023,03,27,09,54,6.00
2023,03,27,09,55,6.10
2023,03,27,09,56,6.20
2023,03,27,09,57,6.20
2023,03,27,09,58,6.20
2023,03,27,09,59,6.30
2023,03,27,10,00,6.30
2023,03,27,10,01,6.40
2023,03,27,10,02,6.40
2023,03,27,10,03,6.40
2023,03,27,10,04,6.40
2023,03,27,10,05,6.40
2023,03,27,10,06,6.40
2023,03,27,10,07,6.40
2023,03,27,10,08,6.50
2023,03,27,10,09,6.50
2023,03,27,10,10,6.60
2023,03,27,10,11,6.60
2023,03,27,10,12,6.60
2023,03,27,10,13,6.60
2023,03,27,10,14,6.70
2023,03,27,10,15,6.70
2023,03,27,10,16,6.70
2023,03,27,10,17,6.60
2023,03,27,10,18,6.60
2023,03,27,10,19,6.60
2023,03,27,10,20,6.60
2023,03,27,10,21,6.60
2023,03,27,10,22,6.60
2023,03,27,10,23,6.70
2023,03,27,10,24,6.70
2023,03,27,10,25,6.70
2023,03,27,10,26,6.80
2023,03,27,10,27,6.80
2023,03,27,10,28,6.80
2023,03,27,10,29,6.80
2023,03,27,10,30,6.80
2023,03,27,10,31,6.70
2023,03,27,10,32,6.70
2023,03,27,10,33,6.70
2023,03,27,10,34,6.70
2023,03,27,10,35,6.70
2023,03,27,10,36,6.70
2023,03,27,10,37,6.70
2023,03,27,10,38,6.70
2023,03,27,10,39,6.70
2023,03,27,10,40,6.70
2023,03,27,10,41,6.70
2023,03,27,10,42,6.70
2023,03,27,10,43,6.70
2023,03,27,10,44,6.70
2023,03,27,10,45,6.70
2023,03,27,10,46,6.60
2023,03,27,10,47,6.60
2023,03,27,10,48,6.60
2023,03,27,10,49,6.70
2023,03,27,10,50,6.70
2023,03,27,10,51,6.80
2023,03,27,10,52,6.80
2023,03,27,10,53,6.90
2023,03,27,10,54,6.90
2023,03,27,10,55,6.90
2023,03,27,10,56,6.90
2023,03,27,10,57,6.90
2023,03,27,10,58,6.90
2023,03,27,10,59,6.90
2023,03,27,11,00,6.90
2023,03,27,11,01,7.00
2023,03,27,11,02,7.00
2023,03,27,11,03,7.10
2023,03,27,11,04,7.10
2023,03,27,11,05,7.20
2023,03,27,11,06,7.20
2023,03,27,11,07,7.20
2023,03,27,11,08,7.20
2023,03,27,11,09,7.20
2023,03,27,11,10,7.20
2023,03,27,11,11,7.20
2023,03,27,11,12,7.20
2023,03,27,11,13,7.20
2023,03,27,11,14,7.20
2023,03,27,11,15,7.20
2023,03,27,11,16,7.30
2023,03,27,11,17,7.30
2023,03,27,11,18,7.30
2023,03,27,11,19,7.40
2023,03,27,11,20,7.50
2023,03,27,11,21,7.60
2023,03,27,11,22,7.60
2023,03,27,11,23,7.50
2023,03,27,11,24,7.50
2023,03,27,11,25,7.40
2023,03,27,11,26,7.40
2023,03,27,11,27,7.30
2023,03,27,11,28,7.30
2023,03,27,11,29,7.30
2023,03,27,11,30,7.40
2023,03,27,11,31,7.40
2023,03,27,11,32,7.40
2023,03,27,11,33,7.40
2023,03,27,11,34,7.40
2023,03,27,11,35,7.40
2023,03,27,11,36,7.40
2023,03,27,11,37,7.50
2023,03,27,11,38,7.60
2023,03,27,11,39,7.60
2023,03,27,11,40,7.70
2023,03,27,11,41,7.70
2023,03,27,11,42,7.70
2023,03,27,11,43,7.70
2023,03,27,11,44,7.70
2023,03,27,11,45,7.70
2023,03,27,11,46,7.70
2023,03,27,11,47,7.70
2023,03,27,11,48,7.80
2023,03,27,11,49,7.80
2023,03,27,11,50,7.90
2023,03,27,11,51,8.00
2023,03,27,11,52,8.10
2023,03,27,11,53,8.10
2023,03,27,11,54,8.10
2023,03,27,11,55,8.10
2023,03,27,11,56,8.10
2023,03,27,11,57,8.10
2023,03,27,11,58,8.00
2023,03,27,11,59,8.00
2023,03,27,12,00,7.90
2023,03,27,12,01,7.90
2023,03,27,12,02,7.90
2023,03,27,12,03,7.90
2023,03,27,12,04,7.80
2023,03,27,12,05,7.90
2023,03,27,12,06,7.90
2023,03,27,12,07,8.00
2023,03,27,12,08,8.00
2023,03,27,12,09,8.10
2023,03,27,12,10,8.10
2023,03,27,12,11,8.00
2023,03,27,12,12,8.00
2023,03,27,12,13,8.00
2023,03,27,12,14,8.00
2023,03,27,12,15,8.00
2023,03,27,12,16,8.10
2023,03,27,12,17,8.10
2023,03,27,12,18,8.00
2023,03,27,12,19,8.00
2023,03,27,12,20,7.90
2023,03,27,12,21,7.90
2023,03,27,12,22,7.80
2023,03,27,12,23,7.80
2023,03,27,12,24,7.80
2023,03,27,12,25,7.80
2023,03,27,12,26,7.80
2023,03,27,12,27,7.90
2023,03,27,12,28,7.90
2023,03,27,12,29,7.90
2023,03,27,12,30,7.90
2023,03,27,12,31,7.90
2023,03,27,12,32,7.90
2023,03,27,12,33,8.00
2023,03,27,12,34,8.10
2023,03,27,12,35,8.10
2023,03,27,12,36,8.10
2023,03,27,12,37,8.10
2023,03,27,12,38,8.00
2023,03,27,12,39,8.00
2023,03,27,12,40,8.00
2023,03,27,12,41,7.90
2023,03,27,12,42,7.90
2023,03,27,12,43,7.90
2023,03,27,12,44,7.90
2023,03,27,12,45,7.90
2023,03,27,12,46,7.90
2023,03,27,12,47,7.90
2023,03,27,12,48,7.90
2023,03,27,12,49,7.90
2023,03,27,12,50,7.90
2023,03,27,12,51,8.00
2023,03,27,12,52,8.00
2023,03,27,12,53,8.00
2023,03,27,12,54,8.00
2023,03,27,12,55,8.00
2023,03,27,12,56,8.10
2023,03,27,12,57,8.10
2023,03,27,12,58,8.10
2023,03,27,12,59,8.20
2023,03,27,13,00,8.30
2023,03,27,13,01,8.30
2023,03,27,13,02,8.40
2023,03,27,13,03,8.40
2023,03,27,13,04,8.40
2023,03,27,13,05,8.40
2023,03,27,13,06,8.40
2023,03,27,13,07,8.40
2023,03,27,13,08,8.40
2023,03,27,13,09,8.40
2023,03,27,13,10,8.40
2023,03,27,13,11,8.30
2023,03,27,13,12,8.30
2023,03,27,13,13,8.40
2023,03,27,13,14,8.40
2023,03,27,13,15,8.50
2023,03,27,13,16,8.60
2023,03,27,13,17,8.60
2023,03,27,13,18,8.60
2023,03,27,13,19,8.60
2023,03,27,13,20,8.60
2023,03,27,13,21,8.60
2023,03,27,13,22,8.60
2023,03,27,13,23,8.60
2023,03,27,13,24,8.60
2023,03,27,13,25,8.60
2023,03,27,13,26,8.60
2023,03,27,13,27,8.60
2023,03,27,13,28,8.60
2023,03,27,13,29,8.60
2023,03,27,13,30,8.60
2023,03,27,13,31,8.70
2023,03,27,13,32,8.70
2023,03,27,13,33,8.70
2023,03,27,13,34,8.80
2023,03,27,13,35,8.80
2023,03,27,13,36,8.80
2023,03,27,13,37,8.80
2023,03,27,13,38,8.80
2023,03,27,13,39,8.80
2023,03,27,13,40,8.70
2023,03,27,13,41,8.60
2023,03,27,13,42,8.60
2023,03,27,13,43,8.60
2023,03,27,13,44,8.60
2023,03,27,13,45,8.60
2023,03,27,13,46,8.60
2023,03,27,13,47,8.60
2023,03,27,13,48,8.60
2023,03,27,13,49,8.60
2023,03,27,13,50,8.70
2023,03,27,13,51,8.70
2023,03,27,13,52,8.80
2023,03,27,13,53,8.80
2023,03,27,13,54,8.90
2023,03,27,13,55,8.90
2023,03,27,13,56,8.80
2023,03,27,13,57,8.80
2023,03,27,13,58,8.80
2023,03,27,13,59,8.80
2023,03,27,14,00,8.80
2023,03,27,14,01,8.90
2023,03,27,14,02,8.90
2023,03,27,14,03,9.00
2023,03,27,14,04,9.00
2023,03,27,14,05,9.00
2023,03,27,14,06,9.00
2023,03,27,14,07,9.00
2023,03,27,14,08,9.00
2023,03,27,14,09,9.10
2023,03,27,14,10,9.20
2023,03,27,14,11,9.20
2023,03,27,14,12,9.20
2023,03,27,14,13,9.10
2023,03,27,14,14,9.10
2023,03,27,14,15,9.10
2023,03,27,14,16,9.10
2023,03,27,14,17,9.00
2023,03,27,14,18,8.90
2023,03,27,14,19,8.90
2023,03,27,14,20,8.90
2023,03,27,14,21,8.90
2023,03,27,14,22,8.90
2023,03,27,14,23,9.00
2023,03,27,14,24,9.00
2023,03,27,14,25,9.10
2023,03,27,14,26,9.10
2023,03,27,14,27,9.10
2023,03,27,14,28,9.10
2023,03,27,14,29,9.10
2023,03,27,14,30,9.10
2023,03,27,14,31,9.10
2023,03,27,14,32,9.10
2023,03,27,14,33,9.10
2023,03,27,14,34,9.10
2023,03,27,14,35,9.10
2023,03,27,14,36,9.10
2023,03,27,14,37,9.10
2023,03,27,14,38,9.10
2023,03,27,14,39,9.20
2023,03,27,14,40,9.30
2023,03,27,14,41,9.40
2023,03,27,14,42,9.40
2023,03,27,14,43,9.40
2023,03,27,14,44,9.50
2023,03,27,14,45,9.50
2023,03,27,14,46,9.60
2023,03,27,14,47,9.60
2023,03,27,14,48,9.50
2023,03,27,14,49,9.40
2023,03,27,14,50,9.40
2023,03,27,14,51,9.40
2023,03,27,14,52,9.40
2023,03,27,14,53,9.50
2023,03,27,14,54,9.50
2023,03,27,14,55,9.50
2023,03,27,14,56,9.50
2023,03,27,14,57,9.60
2023,03,27,14,58,9.60
2023,03,27,14,59,9.60
2023,03,27,15,00,9.60
2023,03,27,15,01,9.70
2023,03,27,15,02,9.70
2023,03,27,15,03,9.70
2023,03,27,15,04,9.70
2023,03,27,15,05,9.70
2023,03,27,15,06,9.70
2023,03,27,15,07,9.70
2023,03,27,15,08,9.60
2023,03,27,15,09,9.60
2023,03,27,15,10,9.60
2023,03,27,15,11,9.70
2023,03,27,15,12,9.80
2023,03,27,15,13,9.80
2023,03,27,15,14,9.80
2023,03,27,15,15,9.80
2023,03,27,15,16,9.80
2023,03,27,15,17,9.80
2023,03,27,15,18,9.80
2023,03,27,15,19,9.80
2023,03,27,15,20,9.80
2023,03,27,15,21,9.80
2023,03,27,15,22,9.90
2023,03,27,15,23,9.90
2023,03,27,15,24,9.90
2023,03,27,15,25,9.90
2023,03,27,15,26,10.00
2023,03,27,15,27,10.00
2023,03,27,15,28,10.10
2023,03,27,15,29,10.20
2023,03,27,15,30,10.20
2023,03,27,15,31,10.20
2023,03,27,15,32,10.20
2023,03,27,15,33,10.20
2023,03,27,15,34,10.20
2023,03,27,15,35,10.20
2023,03,27,15,36,10.20
2023,03,27,15,37,10.20
2023,03,27,15,38,10.20
2023,03,27,15,39,10.20
2023,03,27,15,40,10.20
2023,03,27,15,41,10.20
2023,03,27,15,42,10.20
2023,03,27,15,43,10.10
2023,03,27,15,44,10.10
2023,03,27,15,45,10.00
2023,03,27,15,46,10.00
2023,03,27,15,47,9.90
2023,03,27,15,48,9.90
2023,03,27,15,49,9.90
2023,03,27,15,50,9.90
2023,03,27,15,51,9.90
2023,03,27,15,52,10.00
2023,03,27,15,53,10.10
2023,03,27,15,54,10.10
2023,03,27,15,55,10.20
2023,03,27,15,56,10.10
2023,03,27,15,57,10.10
2023,03,27,15,58,10.10
2023,03,27,15,59,10.10
2023,03,27,16,00,10.10
2023,03,27,16,01,10.10
2023,03,27,16,02,10.10
2023,03,27,16,03,10.10
2023,03,27,16,04,10.10
2023,03,27,16,05,10.10
2023,03,27,16,06,10.20
2023,03,27,16,07,10.10
2023,03,27,16,08,10.10
2023,03,27,16,09,10.20
2023,03,27,16,10,10.10
2023,03,27,16,11,10.10
2023,03,27,16,12,10.20
2023,03,27,16,13,10.20
2023,03,27,16,14,10.20
2023,03,27,16,15,10.20
2023,03,27,16,16,10.20
2023,03,27,16,17,10.30
2023,03,27,16,18,10.30
2023,03,27,16,19,10.30
2023,03,27,16,20,10.30
2023,03,27,16,21,10.40
2023,03,27,16,22,10.40
2023,03,27,16,23,10.50
2023,03,27,16,24,10.50
2023,03,27,16,25,10.50
2023,03,27,16,26,10.50
2023,03,27,16,27,10.50
2023,03,27,16,28,10.50
2023,03,27,16,29,10.50
2023,03,27,16,30,10.60
2023,03,27,16,31,10.60
2023,03,27,16,32,10.60
2023,03,27,16,33,10.50
2023,03,27,16,34,10.50
2023,03,27,16,35,10.50
2023,03,27,16,36,10.50
2023,03,27,16,37,10.50
2023,03,27,16,38,10.60
2023,03,27,16,39,10.50
2023,03,27,16,40,10.50
2023,03,27,16,41,10.50
2023,03,27,16,42,10.50
2023,03,27,16,43,10.50
2023,03,27,16,44,10.50
2023,03,27,16,45,10.50
2023,03,27,16,46,10.60
2023,03,27,16,47,10.60
2023,03,27,16,48,10.60
2023,03,27,16,49,10.70
2023,03,27,16,50,10.70
2023,03,27,16,51,10.80
2023,03,27,16,52,10.80
2023,03,27,16,53,10.80
2023,03,27,16,54,10.80
2023,03,27,16,55,10.80
2023,03,27,16,56,10.80
2023,03,27,16,57,10.70
2023,03,27,16,58,10.70
2023,03,27,16,59,10.70
2023,03,27,17,00,10.70
2023,03,27,17,01,10.70
2023,03,27,17,02,10.70
2023,03,27,17,03,10.80
2023,03,27,17,04,10.80
2023,03,27,17,05,10.80
2023,03,27,17,06,10.80
2023,03,27,17,07,10.80
2023,03,27,17,08,10.90
2023,03,27,17,09,10.90
2023,03,27,17,10,10.90
2023,03,27,17,11,10.90
2023,03,27,17,12,10.80
2023,03,27,17,13,10.80
2023,03,27,17,14,10.80
2023,03,27,17,15,10.80
2023,03,27,17,16,10.80
2023,03,27,17,17,10.80
2023,03,27,17,18,10.80
2023,03,27,17,19,10.80
2023,03,27,17,20,10.90
2023,03,27,17,21,10.90
2023,03,27,17,22,10.90
2023,03,27,17,23,10.80
2023,03,27,17,24,10.80
2023,03,27,17,25,10.80
2023,03,27,17,26,10.80
2023,03,27,17,27,10.80
2023,03,27,17,28,10.80
2023,03,27,17,29,10.80
2023,03,27,17,30,10.80
2023,03,27,17,31,10.80
2023,03,27,17,32,10.90
2023,03,27,17,33,10.90
2023,03,27,17,34,10.90
2023,03,27,17,35,10.80
2023,03,27,17,36,10.80
2023,03,27,17,37,10.70
2023,03,27,17,38,10.70
2023,03,27,17,39,10.70
2023,03,27,17,40,10.70
2023,03,27,17,41,10.70
2023,03,27,17,42,10.70
2023,03,27,17,43,10.70
2023,03,27,17,44,10.70
2023,03,27,17,45,10.70
2023,03,27,17,46,10.70
2023,03,27,17,47,10.70
2023,03,27,17,48,10.70
2023,03,27,17,49,10.70
2023,03,27,17,50,10.60
2023,03,27,17,51,10.60
2023,03,27,17,52,10.60
2023,03,27,17,53,10.60
2023,03,27,17,54,10.60
2023,03,27,17,55,10.60
2023,03,27,17,56,10.60
2023,03,27,17,57,10.60
2023,03,27,17,58,10.60
2023,03,27,17,59,10.60
2023,03,27,18,00,10.60
2023,03,27,18,01,10.60
2023,03,27,18,02,10.50
2023,03,27,18,03,10.50
2023,03,27,18,04,10.50
2023,03,27,18,05,10.50
2023,03,27,18,06,10.50
2023,03,27,18,07,10.50
2023,03,27,18,08,10.50
2023,03,27,18,09,10.50
2023,03,27,18,10,10.50
2023,03,27,18,11,10.60
2023,03,27,18,12,10.60
2023,03,27,18,13,10.60
2023,03,27,18,14,10.60
2023,03,27,18,15,10.60
2023,03,27,18,16,10.60
2023,03,27,18,17,10.60
2023,03,27,18,18,10.70
2023,03,27,18,19,10.70
2023,03,27,18,20,10.70
2023,03,27,18,21,10.70
2023,03,27,18,22,10.70
2023,03,27,18,23,10.70
2023,03,27,18,24,10.70
2023,03,27,18,25,10.70
2023,03,27,18,26,10.70
2023,03,27,18,27,10.70
2023,03,27,18,28,10.70
2023,03,27,18,29,10.70
2023,03,27,18,30,10.70
2023,03,27,18,31,10.70
2023,03,27,18,32,10.70
2023,03,27,18,33,10.70
2023,03,27,18,34,10.70
2023,03,27,18,35,10.70
2023,03,27,18,36,10.70
2023,03,27,18,37,10.70
2023,03,27,18,38,10.60
2023,03,27,18,39,10.70
2023,03,27,18,40,10.70
2023,03,27,18,41,10.70
2023,03,27,18,42,10.70
2023,03,27,18,43,10.60
2023,03,27,18,44,10.60
2023,03,27,18,45,10.60
2023,03,27,18,46,10.60
2023,03,27,18,47,10.50
2023,03,27,18,48,10.50
2023,03,27,18,49,10.40
2023,03,27,18,50,10.40
2023,03,27,18,51,10.40
2023,03,27,18,52,10.40
2023,03,27,18,53,10.40
2023,03,27,18,54,10.40
2023,03,27,18,55,10.40
2023,03,27,18,56,10.30
2023,03,27,18,57,10.30
2023,03,27,18,58,10.30
2023,03,27,18,59,10.30
2023,03,27,19,00,10.30
2023,03,27,19,01,10.30
2023,03,27,19,02,10.30
2023,03,27,19,03,10.20
2023,03,27,19,04,10.20
2023,03,27,19,05,10.20
2023,03,27,19,06,10.20
2023,03,27,19,07,10.20
2023,03,27,19,08,10.20
2023,03,27,19,09,10.20
2023,03,27,19,10,10.10
2023,03,27,19,11,10.10
2023,03,27,19,12,10.10
2023,03,27,19,13,10.10
2023,03,27,19,14,10.10
2023,03,27,19,15,10.00
2023,03,27,19,16,10.00
2023,03,27,19,17,9.90
2023,03,27,19,18,9.90
2023,03,27,19,19,9.90
2023,03,27,19,20,9.80
2023,03,27,19,21,9.80
2023,03,27,19,22,9.80
2023,03,27,19,23,9.70
2023,03,27,19,24,9.70
2023,03,27,19,25,9.70
2023,03,27,19,26,9.60
2023,03,27,19,27,9.60
2023,03,27,19,28,9.50
2023,03,27,19,29,9.50
2023,03,27,19,30,9.40
2023,03,27,19,31,9.40
2023,03,27,19,32,9.40
2023,03,27,19,33,9.30
2023,03,27,19,34,9.30
2023,03,27,19,35,9.30
2023,03,27,19,36,9.30